Flag for Germany Weather past 2 weeks in Böblingen, Baden-Württemberg, Germany

Now
43 °F

Passing clouds.


Feels Like: 38 °F
Forecast: 35 / 45 °F
Wind: 8 mph from Southwest

Location: Stuttgart-Echterdingen

Current Time: Dec 21, 2014 at 9:36:29 PM

Latest Report: Dec 21, 2014 at 9:20 PM


Visibility: N/A

Pressure: 30.42 "Hg

Humidity: 71%

Dew point: 34 °F

Location of BöblingenLocation

Historic Weather in Böblingen — Graph

°F

Böblingen temperature yesterday

Maximum temperature yesterday: 46 °F (at 12:20 AM)
Minimum temperature yesterday: 37 °F (at 5:50 AM)
Average temperature yesterday: 41 °F

Past Weeks' High & Low Weather Summary

 TemperatureHumidityPressure
High54 °F (Dec 13, 3:20 PM)100% (Dec 9, 1:20 AM)30.51 "Hg (Dec 9, 1:20 AM)
Low28 °F (Dec 10, 3:20 AM)58% (Dec 12, 12:50 PM)29.74 "Hg (Dec 12, 4:50 PM)
Average42 °F84%30.07 "Hg
* Reported Dec 6 8:20 PM — Dec 21 8:20 PM, Böblingen, Weather by CustomWeather, © 2014

Note: Actual official high and low records may vary slightly from our data, if they occured in-between our weather recording intervals... More about our weather records

Advertising

Böblingen weather history for previous 24 hours

 ConditionsComfort  
Time TempWeatherWind HumidityBarometerVisibility
8:20 PM
Dec 21
43 °FPassing clouds.8 mph71%30.45 "HgN/A
7:50 PM41 °FPassing clouds.6 mph76%30.45 "HgN/A
7:20 PM41 °FPassing clouds.7 mph76%30.45 "HgN/A
6:50 PM41 °FPassing clouds.6 mph76%30.45 "HgN/A
6:20 PM41 °FPassing clouds.6 mph76%30.45 "HgN/A
5:50 PM41 °FPassing clouds.7 mph76%30.45 "HgN/A
5:20 PM41 °FPassing clouds.8 mph76%30.45 "HgN/A
4:50 PM43 °FPassing clouds.6 mph71%30.45 "HgN/A
4:20 PM43 °FPartly sunny.8 mph71%30.45 "HgN/A
3:50 PM43 °FPartly sunny.7 mph71%30.45 "HgN/A
3:20 PM43 °FPartly sunny.6 mph71%30.45 "HgN/A
2:50 PM43 °FPartly sunny.7 mph76%30.45 "HgN/A
2:20 PM43 °FBroken clouds.6 mph76%30.45 "HgN/A
1:50 PM43 °FPartly sunny.8 mph76%30.48 "HgN/A
1:20 PM43 °FPartly sunny.8 mph76%30.48 "HgN/A
12:50 PM43 °FBroken clouds.9 mph76%30.48 "HgN/A
12:20 PM45 °FBroken clouds.9 mph76%30.48 "HgN/A
11:50 AM43 °FSunny.9 mph76%30.51 "Hg10 mi
11:20 AM43 °FSunny.9 mph76%30.51 "Hg10 mi
10:50 AM41 °FSunny.9 mph81%30.51 "Hg10 mi
10:20 AM41 °FSunny.8 mph81%30.51 "Hg10 mi
9:50 AM39 °FScattered clouds.7 mph87%30.51 "HgN/A
9:20 AM39 °FScattered clouds.7 mph87%30.51 "HgN/A
8:50 AM37 °FScattered clouds.7 mph93%30.51 "HgN/A
8:20 AM39 °FPartly sunny.7 mph87%30.48 "HgN/A
7:50 AM39 °FPassing clouds.5 mph87%30.48 "HgN/A
7:20 AM39 °FPassing clouds.7 mph87%30.48 "HgN/A
6:50 AM39 °FPassing clouds.8 mph87%30.48 "HgN/A
6:20 AM39 °FPassing clouds.8 mph87%30.45 "HgN/A
5:50 AM37 °FPassing clouds.7 mph93%30.45 "HgN/A
5:20 AM37 °FSprinkles. Passing clouds.6 mph93%30.45 "HgN/A
4:50 AM37 °FPassing clouds.5 mph93%30.45 "HgN/A
4:20 AM37 °FSprinkles. Passing clouds.13 mph87%30.45 "HgN/A
3:50 AM37 °FSprinkles. Partly cloudy.18 mph93%30.45 "HgN/A
3:20 AM39 °FSprinkles. Partly cloudy.8 mph87%30.45 "HgN/A
2:50 AM39 °FLight rain. Passing clouds.9 mph87%30.42 "HgN/A
2:20 AM39 °FLight rain. Passing clouds.10 mph87%30.42 "HgN/A
1:20 AM41 °FLight rain. Passing clouds.10 mph81%30.39 "HgN/A
12:50 AM41 °FLight rain. Partly cloudy.8 mph81%30.39 "HgN/A
12:20 AM41 °FPassing clouds.9 mph81%30.39 "HgN/A
11:50 PM
Dec 20
41 °FPartly cloudy.10 mph76%30.36 "HgN/A
11:20 PM41 °FPartly cloudy.8 mph81%30.36 "HgN/A
10:50 PM39 °FPassing clouds.10 mph87%30.36 "HgN/A
10:20 PM39 °FPartly cloudy.14 mph87%30.33 "HgN/A
9:50 PM39 °FSprinkles. Partly cloudy.14 mph87%30.33 "HgN/A
9:20 PM39 °FPassing clouds.12 mph87%30.33 "HgN/A
Weather by CustomWeather, © 2014

See weather overviewHow to use our weather pages